Regional Weather Roundup
Issued by NWS

Home | Current Version | Previous Version | Graphics & Text | Print | Product List | Glossary On
Versions: 1 2 3 4 5 6 7 8 9 10 11 12 13 14 15 16 17 18 19 20 21 22 23 24 25 26 27 28 29 30 31 32 33 34 35 36 37 38 39 40 41 42 43 44 45 46 47 48 49 50
000
ASUS43 KLMK 170510
RWRKY
KENTUCKY REGIONAL WEATHER ROUNDUP
NATIONAL WEATHER SERVICE LOUISVILLE KY
1200 AM EST SAT FEB 17 2018

NOTE "FAIR" INDICATES FEW OR NO CLOUDS BELOW 12,000 FEET
WITH NO SIGNIFICANT WEATHER AND/OR OBSTRUCTIONS TO VISIBILITY.

KYZ001>023-026-027-061>063-070>075-170600-
WESTERN AND SOUTH CENTRAL KENTUCKY

CITY           SKY/WX    TMP DP  RH WIND       PRES   REMARKS
PADUCAH        CLOUDY    39  31  72 NE5       30.28S
HENDERSON      CLOUDY    37  31  78 CALM      30.29F
OWENSBORO      CLOUDY    38  30  73 N3        30.30S
HOPKINSVILLE   MOCLDY    39  34  81 NE5       30.25F
BOWLING GREEN  CLOUDY    41  34  76 NE3       30.27F
GLASGOW        CLOUDY    39  35  86 NE3       30.25F
$$

KYZ024-025-028>034-038-045-046-053-170600-
NORTH CENTRAL KENTUCKY

CITY           SKY/WX    TMP DP  RH WIND       PRES   REMARKS
LOUISVILLE/SDF CLOUDY    39  28  64 CALM      30.29F
LOUISVILLE/LOU CLOUDY    38  30  73 NE5       30.29F WCI  34
FORT KNOX      CLOUDY    37  29  71 CALM      30.28F
$$

KYZ035>037-039>044-047>052-055>060-089>105-170600-
NORTHEAST KENTUCKY

CITY           SKY/WX    TMP DP  RH WIND       PRES   REMARKS
LEXINGTON      CLOUDY    37  31  78 N6        30.27F WCI  32
COVINGTON      CLOUDY    34  27  75 N5        30.27F WCI  30
FRANKFORT      CLOUDY    37  28  70 CALM      30.26F
$$

KYZ054-064>069-076>088-106>120-170600-
SOUTHEAST KENTUCKY

CITY           SKY/WX    TMP DP  RH WIND       PRES   REMARKS
JACKSON        CLOUDY    38  34  85 CALM      30.23S
LONDON         CLOUDY    40  35  83 N5        30.25R
SOMERSET       CLOUDY    37  34  87 N7        30.27R WCI  32
MIDDLESBORO    CLOUDY    43  40  88 CALM      30.24S
MONTICELLO     NOT AVBL
$$





USA.gov is the U.S. government's official web portal to all federal, state and local government web resources and services.